Regional Weather Roundup
Issued by NWS Memphis, TN

Home | Current Version | Previous Version | Text Only | Print | Product List | Glossary On
Versions: 1 2 3 4 5 6 7 8 9 10 11 12 13 14 15 16 17 18 19 20 21 22 23 24 25 26 27 28 29 30 31 32 33 34 35 36 37 38 39 40 41 42 43 44 45 46 47 48 49 50
000
ASUS44 KMEG 301510
RWRMEG
MEMPHIS CWA HOURLY WEATHER ROUNDUP
NATIONAL WEATHER SERVICE MEMPHIS TN
1000 AM CDT SAT MAY 30 2015

...WEST TENNESSEE...

CITY           SKY/WX    TMP DP  RH WIND       PRES   REMARKS
MEMPHIS INTL   PTSUNNY   78  70  76 S16G24    30.00S
NWS MEMPHIS      N/A     75 N/A N/A MISG        N/A
JACKSON        CLOUDY    79  69  71 S13G18    30.02F
LEXINGTON      MOSUNNY   75  70  83 S12       30.05S
DYERSBURG      CLOUDY    77  57  50 S14       30.00S
PARIS          CLOUDY    75  66  73 S8        30.03F


...EASTERN ARKANSAS...

CITY           SKY/WX    TMP DP  RH WIND       PRES   REMARKS
JONESBORO      CLOUDY    73  68  84 S22G28    29.93F
WEST MEMPHIS   LGT RAIN  76  71  85 S20G26    29.98S
BATESVILLE     PTSUNNY   70  66  88 W7        29.95S
NEWPORT        RAIN      70  70 100 SW17G26   29.95R FOG
WALNUT RIDGE   MOSUNNY   72  66  83 S18       29.92F
BLYTHEVILLE    CLOUDY    77  69  76 S15G23    29.97F
SEARCY         LGT RAIN  70  69  97 VRB5      29.99S
STUTTGART      CLOUDY    73  66  78 SW12      30.00S
PINE BLUFF     CLOUDY    74  68  81 SW10      30.02S
MONTICELLO     MOSUNNY   79  72  79 SW9       30.03R


...NORTH MISSISSIPPI...

CITY           SKY/WX    TMP DP  RH WIND       PRES   REMARKS
TUPELO         CLOUDY    77  69  76 S14       30.07S
OXFORD         PTSUNNY   77  68  73 S8G17     30.06F
OLIVE BRANCH   PTSUNNY   75  75 100 S15G22    30.02S
TUNICA         CLOUDY    75  70  83 SW13      30.02R
CLARKSDALE       N/A     77  73  88 CALM      30.02F
CORINTH        CLOUDY    75  70  83 S12G17    30.06S
GREENWOOD      PTSUNNY   80  71  74 SW17G23   30.05F
COLUMBUS       PTSUNNY   79  72  80 SW10      30.09F
STARKVILLE     FAIR      73  70  88 S5        30.09F
GOLDEN TRIANGL PTSUNNY   77  70  78 S9        30.09F


...SOUTHEAST MISSOURI...

CITY           SKY/WX    TMP DP  RH WIND       PRES   REMARKS
WEST PLAINS    CLOUDY    67  63  87 N3        29.98S
POPLAR BLUFF   CLOUDY    74  67  78 S12       29.93S
CAPE GIRARDEAU PTSUNNY   77  68  73 S14       29.96F


...NORTHWEST ALABAMA...

CITY           SKY/WX    TMP DP  RH WIND       PRES   REMARKS
MUSCLE SHOALS  MOSUNNY   80  68  66 S10G17    30.11F


...MIDDLE TENNESSEE...

CITY           SKY/WX    TMP DP  RH WIND       PRES   REMARKS
NASHVILLE      PTSUNNY   80  68  66 S10       30.09F
CLARKSVILLE    PTSUNNY   77  68  73 S13G20    30.05S
COLUMBIA       MOSUNNY   81  70  69 S12       30.08F


...WESTERN KENTUCKY...

CITY           SKY/WX    TMP DP  RH WIND       PRES   REMARKS
PADUCAH        PTSUNNY   78  66  66 SW13G20   29.99S
FORT CAMPBELL  MOSUNNY   79  69  71 S13       30.04F


...CENTRAL ARKANSAS...

CITY           SKY/WX    TMP DP  RH WIND       PRES   REMARKS
LITTLE ROCK    CLOUDY    73  66  78 W8        30.01R


SKY/WX REPORTED AS FAIR MEANS FEW OR NO CLOUDS BELOW
12 THOUSAND FEET.




USA.gov is the U.S. government's official web portal to all federal, state and local government web resources and services.